Location: Napa Junction
(38.1874°N, 122.2508°W)
Time: 23:10:21
(UTC+00:00)

COSMOS 2455 - Pass Details

Date: 13 December 2024
Orbit: 901 x 907 km, 67.1° (Epoch: 19 January)

Event Time Altitude Azimuth Distance (km) Brightness Sun altitude
Rises 14:30:14 0° 223° (SW) 3,516 5.7 -9.2°
Reaches altitude 10° 14:32:49 10° 228° (SW) 2,579 5.0 -8.7°
Maximum altitude 14:38:35 49° 303° (WNW) 1,163 3.1 -7.7°
Drops below altitude 10° 14:44:24 10° 17° (NNE) 2,595 5.2 -6.6°
Sets 14:47:01 0° 23° (NNE) 3,540 5.9 -6.2°
